Temp
8 8 8 7 7 6 6 6 6 6 6 6 6 5 4 4 4 4 3 3 4 2 -2 -2 -2 -2 -4 -4 -9 -6 -7 -7 -10 -11 -10 -13 -13 -14 -13 -9 -13 -13 -13 -12 -12 -14 -10 -10 -10 -10 -10 -11 -12 -13
9 8 8 7 7 7 6 6 6 6 6 5 5 4 3 4 3 3 2 3 3 2 -1 -2 -3 -2 -2 -3 -3 -5 -6 -6 -6 -12 -15 -14 -11 -15 -16 -11 -12 -12 -12 -12 -10 -9 -8 -8 -9 -9 -11 -13 -13 -13
8 8 8 8 7 7 6 6 6 5 6 5 5 4 2 2 2 3 2 2 2 1 -3 -4 -4 -4 -4 -4 -4 -3 -5 -5 -6 -6 -9 -15 -12 -12 -13 -13 -14 -13 -12 -13 -10 -8 -8 -8 -9 -10 -11 -12 -12 -11
8 8 8 8 8 7 6 6 6 6 5 5 5 4 2 2 1 1 1 2 1 1 -2 -5 -5 -5 -5 -5 -5 -4 -4 -5 -6 -6 -7 -17 -13 -9 -13 -13 -14 -11 -12 -12 -12 -10 -8 -8 -8 -10 -11 -11 -11 -10
8 8 8 8 8 7 7 6 6 6 5 5 4 4 3 1 0 -0 0 1 1 1 -3 -6 -6 -6 -6 -6 -5 -6 -6 -6 -7 -7 -9 -14 -10 -11 -13 -14 -16 -12 -13 -13 -11 -9 -11 -9 -9 -11 -12 -11 -12 -12
7 7 7 8 8 8 7 6 6 5 5 5 4 3 2 1 -1 -1 -1 -1 -1 -0 -1 -8 -7 -8 -7 -7 -7 -7 -8 -8 -7 -7 -8 -9 -9 -10 -15 -15 -9 -8 -7 -8 -8 -8 -10 -9 -10 -11 -12 -11 -11 -12
6 6 7 7 8 8 7 6 6 6 5 5 4 1 1 -1 -2 -1 -1 -2 -2 -1 -1 -8 -8 -8 -8 -8 -8 -8 -9 -9 -9 -9 -10 -9 -10 -10 -16 -14 -7 -7 -7 -8 -8 -10 -9 -9 -10 -10 -11 -11 -11 -11
6 6 6 7 7 8 7 7 6 6 5 4 1 -1 -2 -2 -3 -3 -2 -4 -3 -2 -2 -10 -10 -9 -8 -8 -9 -9 -9 -10 -10 -10 -10 -10 -11 -13 -14 -10 -7 -7 -7 -8 -8 -9 -9 -10 -10 -10 -11 -11 -10 -11
5 6 6 6 6 7 8 7 6 6 4 0 -1 -2 -2 -3 -3 -4 -5 -4 -4 -4 -4 -6 -7 -8 -9 -9 -9 -9 -9 -12 -10 -10 -11 -11 -14 -13 -11 -7 -6 -6 -7 -8 -8 -9 -9 -10 -10 -10 -10 -10 -11 -11
4 5 5 5 6 6 7 7 6 3 0 -1 -1 -3 -4 -4 -4 -4 -6 -5 -5 -6 -6 -6 -7 -9 -9 -9 -10 -10 -10 -11 -13 -12 -11 -12 -14 -8 -7 -6 -6 -7 -7 -8 -8 -8 -9 -9 -10 -10 -10 -11 -11 -11
3 4 5 5 5 6 6 4 2 1 -0 -2 -3 -4 -6 -5 -4 -5 -7 -7 -7 -8 -7 -8 -8 -10 -10 -9 -9 -10 -12 -13 -14 -11 -11 -15 -15 -10 -5 -5 -6 -6 -7 -8 -8 -9 -10 -10 -10 -10 -10 -11 -11 -11
3 3 4 4 5 5 4 3 3 2 -1 -2 -2 -6 -6 -6 -6 -7 -8 -10 -10 -7 -9 -9 -9 -9 -9 -8 -9 -12 -13 -15 -12 -12 -13 -15 -14 -6 -5 -6 -6 -6 -7 -8 -9 -9 -10 -10 -11 -11 -11 -11 -11 -11
3 3 3 4 4 4 4 4 3 1 -1 -3 -3 -5 -5 -8 -7 -7 -8 -11 -10 -9 -10 -11 -11 -9 -10 -9 -12 -12 -13 -12 -11 -15 -13 -13 -7 -5 -5 -6 -6 -6 -8 -8 -9 -9 -9 -10 -10 -11 -11 -11 -11 -11
3 3 3 3 3 4 4 3 1 0 0 -1 -3 -7 -6 -8 -8 -7 -7 -8 -8 -9 -10 -8 -11 -10 -10 -10 -12 -11 -12 -12 -14 -15 -13 -13 -5 -5 -6 -6 -6 -7 -8 -8 -9 -9 -10 -10 -10 -10 -11 -11 -11 -11
2 2 2 2 2 3 4 3 1 -0 0 -1 -3 -3 -7 -8 -9 -8 -8 -9 -10 -9 -8 -9 -10 -9 -11 -11 -11 -11 -12 -11 -11 -10 -11 -5 -5 -5 -6 -6 -7 -7 -8 -9 -9 -9 -10 -10 -10 -10 -11 -11 -11 -11
-0 1 2 2 2 1 0 -2 -2 -1 -3 -4 -6 -9 -10 -9 -11 -10 -10 -11 -10 -9 -7 -7 -11 -11 -11 -10 -11 -10 -10 -10 -10 -11 -5 -5 -5 -6 -6 -7 -7 -8 -8 -9 -9 -10 -10 -10 -11 -11 -10 -11 -11 -11
-0 0 1 2 0 -2 -3 -3 -2 -3 -6 -7 -9 -8 -8 -8 -10 -10 -10 -10 -9 -7 -9 -10 -9 -8 -11 -11 -10 -10 -10 -10 -6 -5 -5 -5 -6 -6 -7 -7 -8 -8 -8 -9 -9 -10 -10 -11 -11 -11 -11 -11 -11 -11
0 1 1 0 -1 -4 -4 -2 -3 -6 -10 -10 -9 -9 -9 -9 -9 -10 -8 -8 -8 -8 -7 -9 -10 -11 -10 -9 -9 -10 -8 -6 -5 -5 -6 -6 -6 -7 -7 -8 -9 -9 -9 -9 -10 -10 -11 -11 -11 -11 -11 -11 -11 -11
1 0 0 1 -1 -3 -3 -5 -6 -11 -11 -11 -11 -10 -10 -10 -9 -8 -8 -8 -8 -7 -7 -9 -11 -10 -9 -9 -7 -5 -5 -5 -5 -6 -6 -7 -7 -8 -8 -9 -9 -9 -9 -10 -10 -11 -11 -12 -12 -12 -12 -12 -12 -12
-0 -2 -3 -4 -3 -2 -6 -8 -8 -9 -11 -11 -11 -11 -11 -11 -10 -10 -10 -9 -8 -7 -8 -11 -9 -7 -6 -4 -4 -4 -4 -5 -6 -6 -7 -7 -8 -8 -9 -9 -9 -10 -10 -11 -11 -12 -12 -12 -12 -12 -12 -12 -12 -12
-2 -5 -4 -4 -3 -6 -9 -10 -11 -11 -11 -12 -12 -12 -13 -12 -12 -12 -11 -10 -9 -10 -10 -6 -5 -4 -5 -4 -4 -5 -5 -6 -6 -7 -7 -8 -8 -9 -9 -10 -10 -10 -11 -12 -12 -12 -13 -13 -13 -13 -12 -12 -12 -12
-5 -5 -4 -3 -6 -9 -11 -11 -12 -12 -12 -13 -12 -12 -13 -13 -13 -12 -11 -11 -10 -7 -6 -5 -4 -4 -5 -5 -5 -6 -6 -7 -7 -7 -8 -8 -8 -9 -9 -9 -10 -11 -12 -12 -13 -13 -13 -13 -13 -13 -12 -12 -13 -13
-5 -4 -3 -5 -8 -10 -12 -12 -12 -12 -12 -13 -13 -13 -14 -14 -13 -12 -12 -11 -9 -7 -6 -6 -5 -5 -5 -6 -6 -7 -7 -7 -7 -8 -8 -9 -9 -8 -9 -10 -11 -12 -12 -12 -13 -13 -13 -13 -13 -13 -13 -13 -13 -13
-4 -3 -5 -8 -10 -14 -13 -13 -13 -13 -13 -12 -11 -14 -15 -16 -14 -14 -15 -12 -9 -6 -5 -5 -6 -7 -7 -7 -6 -6 -7 -7 -7 -8 -9 -8 -8 -9 -9 -10 -11 -12 -12 -12 -13 -13 -13 -13 -13 -13 -13 -13 -13 -13
-3 -8 -8 -12 -12 -12 -12 -12 -12 -11 -12 -12 -13 -16 -17 -17 -16 -19 -15 -11 -7 -6 -6 -7 -8 -8 -7 -6 -7 -7 -7 -7 -8 -8 -8 -8 -8 -9 -10 -10 -11 -12 -12 -12 -12 -13 -12 -13 -13 -13 -13 -13 -13 -13
-9 -11 -10 -11 -12 -10 -11 -11 -11 -11 -13 -14 -15 -18 -18 -19 -18 -13 -13 -8 -7 -6 -6 -5 -5 -6 -7 -6 -7 -7 -7 -8 -8 -8 -8 -8 -9 -9 -10 -11 -11 -12 -13 -13 -13 -12 -13 -13 -13 -13 -13 -13 -13 -14
-10 -12 -12 -11 -11 -11 -12 -12 -12 -12 -12 -13 -17 -18 -17 -14 -14 -12 -7 -7 -6 -5 -5 -5 -5 -5 -6 -7 -7 -8 -8 -8 -8 -8 -9 -9 -10 -10 -10 -11 -12 -13 -13 -13 -13 -13 -13 -13 -13 -13 -13 -13 -13 -14
-11 -12 -10 -12 -12 -11 -12 -12 -12 -11 -12 -14 -15 -16 -14 -12 -10 -8 -8 -7 -6 -5 -5 -6 -7 -8 -8 -8 -8 -8 -8 -9 -9 -9 -10 -10 -10 -11 -11 -12 -12 -12 -12 -12 -13 -13 -13 -13 -13 -13 -13 -13 -13 -14
-12 -12 -10 -13 -13 -12 -12 -12 -12 -13 -13 -13 -14 -15 -13 -10 -9 -9 -8 -7 -6 -6 -6 -7 -7 -8 -8 -8 -9 -9 -9 -10 -10 -10 -11 -11 -12 -12 -12 -12 -12 -12 -12 -12 -13 -13 -13 -13 -13 -13 -13 -13 -13 -14
-13 -12 -12 -13 -12 -13 -17 -15 -15 -14 -14 -12 -12 -11 -10 -10 -10 -9 -8 -7 -7 -7 -8 -8 -8 -9 -9 -9 -9 -10 -10 -10 -10 -10 -11 -12 -13 -13 -13 -12 -12 -12 -12 -12 -13 -13 -13 -13 -13 -13 -13 -13 -14 -14
-13 -13 -13 -15 -19 -18 -17 -16 -15 -15 -14 -13 -12 -11 -11 -10 -9 -9 -9 -9 -9 -9 -9 -9 -9 -9 -9 -10 -10 -10 -10 -10 -10 -11 -11 -12 -12 -12 -12 -13 -12 -12 -13 -13 -13 -13 -13 -13 -13 -14 -14 -14 -14 -14
-14 -15 -15 -16 -20 -18 -17 -16 -15 -15 -14 -14 -13 -12 -12 -10 -10 -11 -11 -10 -10 -9 -9 -9 -10 -11 -11 -10 -10 -10 -11 -11 -11 -11 -11 -12 -12 -13 -13 -13 -13 -13 -13 -13 -13 -13 -13 -14 -14 -14 -14 -14 -14 -14
-17 -17 -18 -18 -19 -19 -18 -16 -17 -17 -17 -17 -17 -16 -14 -13 -12 -13 -12 -12 -11 -11 -11 -11 -11 -11 -11 -11 -11 -11 -11 -11 -11 -11 -11 -11 -11 -12 -13 -14 -14 -14 -14 -14 -14 -14 -14 -14 -14 -14 -14 -14 -15 -15
Height
1484 1492 1499 1506 1512 1517 1522 1526 1529 1532 1534 1538 1541 1543 1545 1546 1547 1547 1551 1549 1550 1551 1554 1556 1557 1559 1560 1562 1567 1567 1570 1569 1569 1578 1580 1585 1590 1585 1584 1569 1574 1576 1577 1574 1569 1578 1549 1528 1523 1531 1525 1515 1510 1500
1475 1482 1489 1497 1504 1510 1515 1520 1524 1528 1531 1534 1537 1540 1543 1544 1545 1545 1549 1548 1548 1549 1553 1555 1556 1557 1558 1559 1561 1564 1566 1566 1567 1574 1581 1582 1579 1586 1589 1579 1567 1572 1566 1570 1561 1542 1529 1529 1529 1528 1523 1515 1505 1498
1465 1472 1479 1487 1494 1502 1508 1513 1519 1524 1527 1530 1534 1536 1539 1541 1542 1543 1545 1547 1548 1549 1553 1556 1557 1558 1558 1559 1559 1562 1564 1565 1567 1566 1569 1574 1581 1575 1581 1576 1571 1560 1557 1559 1553 1534 1530 1528 1528 1526 1521 1514 1506 1496
1454 1462 1469 1477 1485 1493 1500 1506 1512 1518 1522 1525 1529 1531 1534 1538 1539 1541 1543 1546 1547 1548 1551 1556 1557 1558 1558 1558 1559 1560 1561 1563 1565 1566 1567 1569 1573 1568 1570 1565 1567 1556 1555 1551 1547 1535 1530 1526 1526 1521 1515 1510 1505 1494
1444 1450 1458 1466 1475 1483 1491 1498 1505 1511 1516 1520 1523 1526 1529 1533 1535 1538 1541 1543 1545 1549 1550 1555 1556 1557 1556 1557 1558 1559 1561 1561 1564 1566 1567 1570 1565 1566 1565 1564 1558 1546 1543 1548 1541 1532 1531 1524 1523 1520 1515 1509 1504 1495
1435 1440 1447 1455 1465 1473 1482 1490 1497 1504 1509 1514 1517 1521 1524 1529 1532 1537 1540 1541 1542 1544 1547 1552 1554 1554 1555 1556 1557 1559 1560 1561 1565 1566 1566 1565 1564 1565 1569 1568 1536 1535 1535 1534 1532 1530 1528 1523 1521 1518 1513 1509 1504 1499
1428 1431 1438 1445 1455 1462 1472 1480 1489 1496 1502 1508 1511 1517 1520 1525 1528 1533 1534 1536 1538 1544 1545 1552 1555 1556 1556 1555 1556 1559 1560 1561 1563 1565 1564 1564 1564 1565 1564 1560 1529 1531 1532 1531 1529 1527 1524 1520 1517 1515 1511 1507 1504 1499
1420 1424 1429 1436 1444 1453 1461 1470 1479 1487 1494 1500 1507 1513 1517 1521 1526 1530 1530 1532 1536 1541 1544 1548 1553 1556 1556 1556 1556 1557 1558 1559 1561 1561 1562 1561 1561 1561 1556 1529 1528 1528 1528 1526 1526 1524 1521 1518 1514 1510 1508 1504 1500 1496
1415 1418 1422 1427 1435 1442 1451 1460 1469 1477 1485 1493 1498 1507 1515 1520 1524 1526 1529 1533 1534 1540 1540 1542 1543 1548 1552 1554 1556 1557 1556 1559 1560 1560 1559 1560 1556 1551 1526 1524 1525 1525 1526 1525 1522 1522 1520 1518 1515 1512 1506 1500 1498 1493
1410 1412 1414 1419 1426 1434 1442 1450 1457 1467 1475 1483 1496 1507 1512 1516 1521 1526 1531 1533 1533 1534 1534 1534 1537 1542 1545 1551 1555 1557 1556 1556 1561 1557 1558 1557 1544 1525 1522 1520 1521 1522 1522 1521 1519 1518 1517 1516 1513 1509 1505 1502 1500 1494
1405 1407 1410 1413 1419 1427 1435 1438 1446 1456 1468 1480 1490 1499 1507 1513 1520 1524 1526 1529 1531 1530 1524 1527 1530 1537 1542 1549 1552 1554 1556 1557 1564 1557 1558 1557 1545 1517 1516 1518 1519 1518 1518 1518 1516 1515 1513 1511 1510 1506 1503 1501 1498 1495
1401 1403 1405 1409 1413 1420 1424 1428 1434 1447 1460 1469 1475 1492 1506 1511 1515 1519 1523 1526 1526 1520 1521 1522 1527 1531 1537 1543 1547 1553 1555 1558 1561 1555 1557 1556 1524 1516 1516 1518 1517 1517 1517 1515 1514 1513 1513 1510 1509 1506 1503 1500 1497 1494
1397 1399 1400 1404 1407 1411 1413 1421 1436 1440 1448 1465 1477 1487 1493 1505 1510 1508 1513 1513 1511 1507 1511 1516 1524 1526 1534 1539 1544 1549 1554 1555 1553 1559 1548 1528 1513 1513 1514 1516 1515 1513 1512 1512 1511 1509 1509 1509 1507 1505 1502 1498 1495 1493
1391 1393 1395 1400 1402 1404 1410 1417 1423 1436 1451 1459 1467 1483 1482 1490 1483 1476 1478 1481 1488 1493 1501 1511 1518 1524 1530 1535 1540 1545 1550 1550 1556 1559 1534 1511 1508 1510 1510 1511 1511 1511 1510 1509 1508 1506 1505 1505 1503 1503 1500 1498 1494 1491
1384 1388 1391 1395 1399 1399 1405 1411 1421 1431 1440 1449 1455 1458 1466 1466 1470 1470 1472 1478 1485 1491 1499 1510 1516 1522 1527 1533 1536 1543 1548 1544 1536 1524 1511 1502 1505 1508 1508 1508 1507 1508 1507 1506 1504 1503 1503 1501 1500 1499 1499 1495 1493 1490
1381 1385 1385 1391 1396 1401 1403 1412 1419 1429 1435 1441 1448 1455 1459 1464 1471 1472 1473 1477 1482 1490 1499 1506 1514 1519 1523 1524 1531 1528 1530 1522 1509 1503 1501 1502 1502 1503 1505 1505 1504 1504 1502 1502 1501 1501 1500 1499 1498 1497 1495 1496 1492 1489
1378 1377 1381 1386 1395 1404 1410 1414 1421 1426 1434 1441 1447 1448 1450 1454 1457 1462 1467 1473 1481 1487 1493 1499 1507 1507 1516 1521 1520 1517 1509 1497 1494 1495 1498 1502 1500 1502 1502 1501 1501 1501 1499 1497 1496 1496 1495 1494 1492 1491 1491 1490 1491 1488
1371 1375 1378 1379 1387 1402 1414 1419 1425 1429 1438 1443 1446 1449 1449 1451 1455 1461 1466 1471 1479 1482 1486 1493 1496 1504 1503 1502 1498 1490 1486 1490 1493 1494 1496 1498 1499 1498 1498 1497 1498 1498 1495 1493 1493 1493 1492 1492 1491 1489 1486 1486 1487 1486
1367 1372 1372 1375 1382 1397 1413 1422 1426 1433 1442 1446 1449 1449 1448 1452 1458 1463 1465 1473 1477 1480 1483 1488 1491 1490 1486 1483 1478 1480 1481 1484 1488 1491 1493 1494 1494 1495 1495 1495 1494 1493 1491 1489 1489 1489 1488 1487 1486 1488 1485 1482 1483 1483
1368 1373 1379 1385 1393 1399 1410 1422 1427 1433 1442 1447 1451 1454 1452 1454 1459 1463 1468 1473 1475 1480 1481 1481 1476 1472 1475 1475 1477 1480 1481 1483 1487 1487 1489 1491 1491 1490 1491 1492 1490 1487 1485 1485 1485 1484 1483 1483 1483 1483 1482 1480 1480 1480
1363 1375 1380 1386 1394 1400 1412 1423 1428 1435 1443 1446 1451 1453 1455 1458 1464 1466 1469 1473 1473 1471 1469 1466 1467 1470 1472 1474 1475 1477 1480 1481 1483 1485 1486 1487 1487 1487 1487 1486 1484 1482 1481 1480 1480 1479 1478 1477 1478 1479 1478 1477 1478 1478
1365 1376 1382 1389 1395 1407 1417 1426 1429 1434 1441 1446 1450 1451 1457 1463 1465 1466 1467 1471 1465 1459 1458 1459 1463 1466 1468 1471 1473 1475 1476 1477 1478 1481 1483 1483 1483 1483 1481 1480 1479 1478 1477 1476 1476 1475 1475 1474 1474 1475 1474 1474 1475 1475
1367 1377 1384 1391 1400 1414 1428 1427 1427 1434 1442 1447 1451 1454 1455 1458 1461 1464 1465 1460 1453 1449 1452 1455 1458 1460 1463 1466 1468 1471 1471 1473 1475 1478 1479 1480 1479 1478 1476 1475 1474 1473 1473 1473 1473 1472 1471 1470 1471 1470 1471 1471 1472 1472
1374 1381 1388 1396 1405 1418 1423 1425 1429 1434 1442 1446 1447 1452 1455 1457 1459 1461 1457 1445 1437 1440 1442 1445 1449 1453 1457 1461 1463 1465 1467 1469 1472 1475 1476 1476 1475 1474 1473 1472 1470 1470 1470 1469 1469 1469 1468 1467 1467 1467 1468 1468 1469 1469
1379 1393 1396 1404 1407 1411 1419 1424 1427 1429 1437 1442 1444 1451 1453 1454 1455 1457 1447 1431 1427 1430 1435 1438 1441 1446 1451 1454 1457 1460 1463 1467 1469 1470 1470 1470 1470 1470 1470 1468 1468 1468 1467 1466 1466 1465 1465 1464 1465 1465 1465 1465 1465 1466
1384 1393 1396 1399 1404 1406 1413 1416 1419 1426 1431 1437 1441 1445 1448 1449 1453 1441 1429 1421 1421 1423 1427 1432 1436 1442 1447 1450 1453 1457 1461 1463 1464 1465 1464 1466 1466 1466 1466 1465 1465 1465 1463 1462 1462 1461 1462 1462 1463 1463 1462 1463 1463 1463
1385 1393 1394 1396 1400 1402 1408 1413 1417 1418 1424 1427 1435 1440 1441 1443 1438 1423 1420 1420 1422 1423 1428 1434 1439 1442 1446 1450 1454 1456 1458 1459 1459 1459 1461 1462 1461 1462 1462 1462 1461 1460 1459 1458 1458 1458 1459 1459 1459 1459 1459 1459 1459 1459
1384 1387 1390 1396 1398 1400 1403 1407 1411 1413 1414 1417 1423 1429 1427 1423 1419 1418 1419 1421 1423 1426 1430 1435 1439 1443 1446 1449 1452 1453 1454 1454 1454 1455 1455 1456 1457 1458 1458 1457 1456 1455 1454 1454 1455 1455 1456 1456 1456 1456 1455 1455 1456 1456
1385 1385 1390 1395 1396 1398 1400 1402 1404 1406 1409 1412 1413 1414 1414 1415 1417 1418 1419 1421 1424 1429 1432 1436 1440 1443 1445 1446 1447 1447 1448 1449 1450 1449 1448 1450 1452 1453 1453 1452 1451 1451 1450 1450 1451 1452 1452 1452 1452 1452 1452 1451 1452 1452
1385 1387 1390 1393 1394 1397 1400 1401 1403 1405 1407 1410 1411 1411 1413 1415 1416 1417 1419 1422 1426 1429 1433 1436 1438 1439 1440 1440 1441 1442 1443 1445 1444 1444 1444 1446 1447 1448 1448 1448 1447 1446 1447 1448 1448 1448 1448 1448 1448 1448 1449 1449 1449 1449
1383 1386 1387 1390 1395 1398 1399 1401 1403 1405 1407 1409 1409 1412 1414 1415 1417 1418 1420 1422 1425 1427 1430 1432 1432 1433 1434 1436 1437 1438 1440 1441 1441 1441 1441 1441 1442 1442 1443 1442 1442 1443 1444 1445 1445 1445 1445 1445 1445 1446 1446 1445 1446 1446
1383 1384 1387 1394 1399 1401 1402 1404 1405 1406 1408 1410 1413 1415 1415 1416 1417 1418 1417 1419 1420 1422 1424 1426 1428 1430 1431 1433 1434 1436 1437 1438 1438 1437 1437 1437 1437 1437 1437 1437 1438 1440 1441 1441 1441 1441 1441 1441 1442 1442 1442 1442 1442 1442
1388 1390 1392 1395 1400 1402 1404 1405 1408 1411 1413 1413 1413 1412 1411 1411 1412 1414 1414 1415 1416 1417 1419 1422 1424 1427 1429 1431 1432 1434 1435 1435 1434 1434 1433 1433 1432 1432 1432 1434 1435 1436 1436 1436 1436 1436 1436 1437 1437 1438 1438 1438 1439 1439
Wind_Speed
50 48 44 41 37 35 33 28 24 20 19 20 18 14 12 10 8 6 7 6 3 3 12 8 8 6 7 5 4 4 2 1 3 3 2 2 2 2 2 3 3 2 1 2 2 3 7 7 4 3 8 28 30 38
53 51 47 46 41 37 35 32 28 23 19 20 20 15 15 13 10 9 8 7 5 4 7 9 8 7 6 6 6 6 2 2 3 4 1 2 2 1 1 3 2 3 5 3 6 5 5 17 15 12 21 28 26 37
47 52 52 48 44 39 38 36 33 28 23 22 21 18 16 15 13 9 8 8 7 5 6 7 6 8 7 6 7 5 4 4 4 3 6 2 2 3 2 4 2 3 5 3 3 3 7 28 9 26 29 27 33 35
48 51 53 52 46 43 40 38 37 32 29 25 24 20 18 18 15 11 9 10 8 4 4 3 7 7 7 7 7 7 3 8 8 5 2 3 2 6 3 2 3 3 5 3 6 14 21 3 24 29 27 30 33 34
44 47 52 53 50 46 43 39 38 35 32 29 28 25 21 21 17 14 11 10 10 4 5 5 8 7 7 6 5 5 7 8 6 3 2 2 2 2 1 1 3 9 6 4 4 7 8 23 31 23 27 31 31 33
40 43 46 51 51 50 45 42 39 37 35 34 32 30 26 21 17 14 7 13 12 9 4 2 5 6 8 6 7 8 6 6 3 2 3 3 2 1 1 3 7 15 14 13 7 14 22 26 18 20 27 30 30 29
37 43 42 45 54 53 48 46 41 39 37 35 35 30 26 22 22 13 6 6 15 11 4 5 1 4 8 9 8 7 5 3 3 2 3 2 3 4 1 3 5 9 8 11 14 16 17 12 21 22 23 28 28 27
30 40 44 46 48 54 51 48 43 42 41 39 36 31 30 28 24 12 8 15 17 7 4 5 1 4 10 5 4 5 4 5 4 2 3 3 3 3 4 20 15 12 15 15 12 11 17 19 18 18 21 26 30 31
25 32 42 47 45 46 56 50 48 47 48 43 42 39 32 22 13 12 16 19 19 6 4 6 5 3 12 4 4 5 5 1 3 2 3 5 2 5 10 12 10 9 8 12 13 14 15 15 18 18 19 22 28 33
23 23 33 42 47 42 47 53 50 56 56 51 45 15 10 12 10 12 11 9 10 7 6 5 6 3 9 6 3 4 3 2 1 2 3 3 4 22 18 14 11 13 14 13 11 10 12 14 15 18 19 20 24 27
22 23 24 35 43 45 48 55 61 64 59 45 15 8 19 22 13 7 5 4 5 3 8 8 7 7 7 4 3 5 3 1 1 2 2 2 3 6 4 5 7 9 10 11 11 10 11 15 17 19 19 20 22 25
23 22 22 25 36 49 54 63 68 65 48 37 22 32 26 8 4 4 3 2 4 5 9 11 8 7 9 6 4 4 2 2 3 4 1 3 4 6 6 4 7 9 11 11 11 11 12 13 14 16 18 19 19 22
24 22 20 19 24 47 58 61 63 58 50 32 10 11 9 6 4 8 9 4 4 13 15 15 8 8 7 4 6 3 3 3 3 1 4 5 5 8 6 6 9 10 12 12 11 12 13 13 13 15 17 15 17 18
23 21 19 17 17 43 56 67 71 61 28 8 12 7 7 5 6 5 4 5 8 13 29 25 10 6 5 4 4 4 2 2 1 2 6 3 8 11 7 7 9 9 12 12 11 11 13 14 14 13 14 15 16 16
23 19 16 9 36 40 57 66 69 55 14 8 9 6 7 6 4 11 17 17 14 32 34 16 9 5 3 4 2 4 2 4 5 5 3 6 12 8 5 7 8 10 11 12 11 13 13 13 14 14 13 13 14 14
18 19 19 9 50 56 72 69 54 29 7 6 5 5 10 8 5 11 16 20 31 35 20 6 5 3 2 4 4 7 5 6 4 6 9 13 11 6 6 8 9 10 10 11 12 13 14 14 14 15 13 14 14 14
17 19 18 26 60 63 63 46 24 5 6 5 3 7 10 8 11 16 22 25 40 29 4 6 5 4 7 3 4 5 5 3 7 11 12 11 8 6 8 9 10 11 11 12 13 14 15 14 14 15 14 12 14 13
24 22 25 63 69 61 38 17 6 5 5 4 4 12 9 11 23 22 19 39 28 14 12 5 9 4 5 6 4 5 15 9 8 11 10 9 8 8 10 11 11 13 13 13 14 15 16 16 16 15 14 13 14 13
23 36 48 62 71 45 10 4 4 6 4 6 13 14 11 17 19 23 26 40 15 15 11 9 3 4 4 9 9 9 12 13 11 10 9 9 9 10 11 12 13 14 15 15 16 17 16 16 16 16 14 13 14 13
38 46 53 52 42 11 7 6 7 7 5 6 9 9 10 11 19 20 29 28 18 10 5 4 6 6 7 8 10 9 9 9 8 7 7 8 9 10 10 13 14 15 17 17 17 17 16 16 14 14 13 12 12 11
61 52 47 43 18 9 8 6 6 7 10 7 19 7 8 16 13 12 17 23 10 6 7 12 10 9 9 9 10 10 8 8 7 8 8 9 9 11 12 12 15 16 16 15 15 14 14 15 13 13 13 12 12 12
43 44 39 27 7 6 8 6 10 10 6 11 9 7 9 6 7 10 12 11 7 14 12 12 15 16 15 12 9 9 10 9 9 9 9 10 11 12 14 15 16 15 14 14 14 14 13 12 13 14 13 12 13 12
48 37 19 6 7 5 6 5 5 4 4 6 7 5 3 5 8 15 8 9 13 20 22 24 19 16 13 14 14 13 11 10 9 8 9 10 10 12 14 15 14 14 13 11 12 13 12 11 12 12 12 12 12 11
37 12 5 5 6 5 6 3 5 7 7 4 3 4 3 5 11 4 3 7 12 17 27 30 25 23 20 18 16 13 11 9 8 9 8 8 9 10 13 12 11 11 12 11 12 12 11 11 11 11 12 12 11 11
9 4 4 4 4 6 4 4 3 3 3 3 4 2 4 6 3 3 4 6 17 23 21 20 25 24 21 16 15 15 13 11 10 8 9 7 9 10 11 11 10 11 11 13 12 12 11 11 11 12 12 11 11 11
6 2 2 4 4 4 5 5 5 5 4 4 2 6 5 3 2 5 4 6 13 18 25 21 21 21 20 17 16 15 13 12 10 9 8 9 9 11 11 11 12 10 11 11 12 11 11 12 13 13 13 12 10 10
5 3 4 5 7 10 5 6 6 3 4 6 5 6 4 5 6 5 4 4 7 12 16 14 14 13 13 15 15 14 12 10 10 9 10 10 12 12 12 12 11 9 10 11 11 11 11 12 13 13 13 12 12 12
4 6 5 8 5 3 4 3 5 7 4 9 15 6 9 8 4 4 5 12 14 17 18 19 18 16 14 13 12 11 10 10 12 13 15 15 15 14 14 12 10 10 12 11 11 12 12 12 12 13 13 13 12 12
3 10 9 3 4 3 3 3 4 4 9 17 4 3 4 5 6 7 14 17 18 17 16 16 15 13 12 11 10 10 12 14 17 18 18 15 14 13 14 11 10 10 10 11 12 12 11 11 12 13 13 13 12 13
6 9 4 3 3 2 2 4 5 10 8 10 5 4 4 4 8 10 16 19 18 17 16 15 14 11 10 11 12 13 12 12 12 13 13 11 11 12 11 11 11 10 10 11 11 11 11 11 12 12 12 12 12 12
9 4 4 5 4 3 5 7 8 8 7 7 4 4 4 5 7 10 13 16 18 18 17 15 13 11 13 11 9 9 9 9 8 8 10 12 14 13 12 12 12 12 12 11 11 12 12 13 13 14 13 12 12 12
3 4 4 3 2 6 9 4 5 3 4 4 5 7 6 6 7 7 8 12 16 18 19 19 17 13 11 9 8 8 7 8 9 8 8 8 9 12 13 13 13 13 13 14 13 12 13 14 15 15 14 14 13 13
5 4 5 6 4 3 5 5 4 4 4 5 3 4 4 5 3 3 3 6 7 9 11 13 13 12 10 8 6 6 6 6 7 8 9 9 10 10 10 10 10 10 11 12 13 14 15 15 15 15 15 15 14 14
Wind_Direction
219 219 220 221 221 219 218 221 225 225 224 225 221 224 230 219 210 195 219 191 188 156 164 184 179 169 161 172 145 161 56 314 48 65 123 213 159 265 341 264 205 188 96 298 319 335 310 357 355 59 286 311 319 320
227 220 220 219 219 219 219 220 223 228 226 222 221 230 228 221 209 199 220 199 185 165 158 183 192 198 199 180 179 166 167 145 158 92 57 114 223 96 155 287 58 337 185 214 186 239 298 324 326 325 322 319 329 323
233 224 219 220 218 219 220 221 222 224 226 220 225 231 223 218 209 202 212 203 188 175 142 165 189 196 200 201 199 170 188 183 167 144 154 164 208 131 229 243 296 276 187 214 353 275 290 317 320 336 332 333 338 338
231 231 223 218 217 218 219 220 221 222 225 219 225 227 222 221 208 204 209 204 203 150 121 176 194 194 207 208 214 214 211 173 161 162 162 137 170 190 233 228 194 220 157 220 260 291 321 314 325 333 330 337 341 341
230 231 229 218 217 217 217 218 218 220 224 220 222 226 224 218 206 200 206 212 207 213 145 141 187 208 202 198 200 190 178 175 172 172 159 234 206 170 267 273 248 192 197 163 241 289 276 298 323 331 332 337 344 345
225 229 228 224 214 216 217 216 216 220 222 223 223 222 222 221 199 190 204 219 210 198 161 129 191 189 193 185 176 178 178 187 181 208 216 229 210 193 97 250 253 216 231 249 262 294 298 309 320 333 330 337 343 345
224 228 232 229 216 218 214 216 215 218 221 224 224 214 214 203 196 194 187 178 184 178 163 97 184 181 172 162 161 179 188 170 185 232 234 227 189 222 182 244 244 212 241 270 280 292 305 315 320 332 334 335 338 349
227 225 229 234 228 220 214 215 214 217 218 219 203 180 190 197 203 204 181 155 164 171 172 125 144 187 182 182 155 173 159 171 202 219 215 196 173 219 253 244 244 248 280 284 286 285 298 306 321 332 336 337 341 350
228 227 225 231 231 232 220 212 212 212 211 185 178 182 185 189 192 197 168 167 173 177 192 178 166 188 167 156 149 161 175 127 185 228 234 176 202 228 229 247 245 248 264 289 297 301 305 310 324 332 341 346 345 347
227 228 222 225 231 233 227 213 211 196 183 176 173 156 165 171 176 161 164 189 204 198 210 195 145 141 154 154 148 136 165 158 183 237 167 223 257 260 257 248 260 277 282 285 293 302 305 310 324 332 344 349 344 346
225 223 226 220 225 228 228 204 186 185 181 163 160 128 143 146 140 167 149 164 179 229 197 166 164 139 150 139 157 195 165 141 90 228 172 278 274 246 201 202 253 266 270 278 284 291 300 309 320 327 338 345 345 346
229 225 221 219 217 218 199 191 194 189 176 179 160 130 135 166 144 139 163 139 209 215 168 151 148 132 133 147 127 160 138 58 239 136 98 266 254 226 188 250 289 286 280 282 286 292 297 304 312 319 329 334 339 343
230 228 220 217 210 207 197 203 199 185 174 140 124 142 155 152 176 190 186 221 202 169 170 153 140 134 127 148 101 120 108 202 128 75 234 231 257 190 207 280 297 295 285 281 286 292 295 302 306 311 319 327 331 341
217 222 220 206 216 207 202 195 187 185 166 142 151 148 200 181 230 188 176 146 149 157 151 142 118 121 134 116 133 123 177 120 94 256 235 244 223 204 227 277 298 301 289 284 289 289 292 297 302 307 311 317 324 336
211 217 232 209 200 204 202 200 190 174 166 153 160 186 189 155 131 147 136 126 132 147 143 122 98 120 120 112 151 112 143 237 216 232 230 197 176 188 250 289 303 300 290 290 292 292 293 294 298 305 309 311 316 323
215 220 218 213 190 185 182 167 164 169 115 132 139 113 129 108 136 144 142 131 147 148 141 128 121 122 142 133 154 205 169 223 231 214 202 180 188 217 272 294 299 295 298 300 299 294 292 294 297 299 306 310 311 314
200 225 208 187 176 171 164 160 152 118 106 114 118 164 147 129 149 153 160 156 156 153 145 141 145 165 117 146 215 191 209 216 205 184 181 199 208 249 280 293 295 297 303 306 301 291 288 287 288 292 300 302 301 308
217 223 191 173 171 160 157 166 146 101 80 104 127 151 143 141 153 157 161 163 160 169 149 177 139 165 185 186 208 216 217 198 181 186 201 216 242 267 282 289 290 294 302 304 300 292 288 287 290 292 291 296 296 303
216 181 179 185 176 155 138 127 97 97 84 105 129 135 130 140 161 167 164 166 161 167 153 162 145 188 209 215 213 191 186 191 204 218 230 240 257 272 282 287 289 296 299 300 296 292 287 283 288 290 290 291 294 299
171 167 163 158 159 140 102 87 96 96 119 135 137 120 115 128 148 157 165 170 162 156 184 205 211 208 204 203 187 179 177 188 208 222 241 257 267 278 283 284 293 297 296 295 294 293 288 284 286 288 286 287 290 293
161 155 156 157 132 83 93 111 89 104 128 117 135 109 101 128 129 144 166 178 182 211 225 221 217 204 197 183 179 190 201 216 237 256 268 273 280 284 287 294 298 297 296 296 294 293 282 283 287 284 280 280 281 283
150 157 148 157 88 85 82 80 115 114 91 135 122 105 124 135 147 158 169 195 233 225 215 218 217 219 216 214 219 220 230 244 253 257 264 274 284 293 304 307 302 295 289 288 289 293 291 280 278 280 282 279 274 277
147 145 140 87 92 73 114 113 90 88 113 148 131 122 126 137 166 152 193 224 236 232 227 229 226 221 219 224 231 235 239 238 239 249 260 271 289 305 305 304 297 292 291 287 282 288 294 289 279 278 279 274 274 272
145 137 80 77 79 112 128 92 109 109 114 161 144 115 144 140 156 198 251 238 224 217 223 224 221 219 220 220 224 224 220 219 225 236 253 279 303 308 306 306 295 291 287 282 279 285 295 291 281 273 271 270 270 270
115 65 117 80 119 119 114 139 123 111 118 149 125 144 170 162 164 200 235 250 217 214 211 210 213 216 222 223 206 195 200 209 219 231 259 287 302 303 300 300 294 283 278 282 286 284 288 283 275 270 270 270 270 267
83 70 101 147 143 133 163 134 153 143 135 142 126 138 153 130 133 238 226 239 223 205 198 195 190 190 192 184 186 195 203 213 226 247 265 282 291 295 296 290 284 281 280 281 284 282 284 277 271 269 270 270 266 263
118 160 130 120 130 126 103 89 123 124 156 167 167 166 150 181 226 244 221 190 169 172 175 177 180 177 176 186 193 205 217 230 246 257 267 274 281 283 282 283 285 286 286 283 280 279 279 276 272 270 271 267 263 260
103 141 138 144 125 135 119 128 161 191 167 156 144 179 179 193 211 155 153 152 147 151 158 162 166 178 191 198 206 222 237 250 259 263 267 274 276 272 272 274 277 279 284 283 278 274 274 272 271 276 276 271 264 259
96 134 121 99 121 121 128 154 167 151 156 173 173 169 207 171 159 149 155 153 159 162 169 175 181 189 203 221 239 255 264 267 269 273 278 275 264 261 265 273 279 283 285 284 275 270 268 268 275 279 275 265 259 256
144 159 125 127 144 127 128 135 144 155 159 164 155 128 120 135 163 160 166 169 173 176 183 192 201 212 237 261 266 263 262 264 269 270 267 258 254 246 252 265 278 282 280 280 269 258 262 268 276 282 275 268 267 263
139 146 102 69 85 86 121 126 139 147 155 172 152 137 136 137 164 180 184 188 194 197 205 215 227 246 271 252 236 240 251 263 272 273 267 255 249 252 258 263 271 275 273 272 268 260 261 266 275 278 276 265 262 260
85 67 96 98 98 130 129 136 136 131 155 173 200 204 192 179 171 186 205 218 226 231 233 239 246 249 219 217 226 240 250 260 270 279 282 277 262 251 253 259 266 269 267 265 267 271 269 267 268 270 267 265 261 258
100 102 99 108 119 152 149 137 149 163 172 179 175 174 175 163 138 197 215 216 210 200 189 183 182 189 196 204 219 237 258 273 284 290 293 291 283 265 248 249 255 263 268 266 264 263 266 267 264 264 264 258 258 258